Overview Statistics Trail Chart Weather Telemetry Raw packets
 

This is the latest recevied weather packets stored in our database for station/object DG1ROH. If no packets are shown the sender has not sent any weather packets the latest 10 day(s).

<< 126 127 128 129 130 131 132 >>
Time Temp. Humidity Pressure Rain* Wind** Luminosity Snow
1777450629 11.11° C 36% 1029.9 hPa 0 mm - 559 W/m² -
1777450509 11.11° C 35% 1030 hPa 0 mm - 555 W/m² -
1777450389 11.67° C 38% 1029.9 hPa 0 mm - 555 W/m² -
1777450268 11.67° C 40% 1029.9 hPa 0 mm - 548 W/m² -
1777450149 11.11° C 40% 1030 hPa 0 mm - 543 W/m² -
1777450029 11.11° C 39% 1029.9 hPa 0 mm - 526 W/m² -
1777449908 10.56° C 38% 1030 hPa 0 mm - 526 W/m² -
1777449788 10.56° C 38% 1029.9 hPa 0 mm - 527 W/m² -
1777449668 10.56° C 39% 1029.9 hPa 0 mm - 156 W/m² -
1777449549 10.56° C 42% 1029.8 hPa 0 mm - 156 W/m² -
1777449429 10° C 40% 1029.8 hPa 0 mm - 79 W/m² -
1777449309 10.56° C 41% 1029.9 hPa 0 mm - 70 W/m² -
1777449188 10.56° C 42% 1029.8 hPa 0 mm - 72 W/m² -
1777449069 10.56° C 44% 1029.7 hPa 0 mm - 58 W/m² -
1777448948 10° C 42% 1029.7 hPa 0 mm - 46 W/m² -
1777448829 10° C 42% 1029.7 hPa 0 mm - 40 W/m² -
1777448703 9.44° C 42% 1029.7 hPa 0 mm - 39 W/m² -
1777448583 9.44° C 42% 1029.7 hPa 0 mm - 40 W/m² -
1777448463 9.44° C 44% 1029.7 hPa 0 mm - 37 W/m² -
1777448343 9.44° C 44% 1029.6 hPa 0 mm - 37 W/m² -
1777448221 9.44° C 45% 1029.7 hPa 0 mm - 37 W/m² -
1777448102 9.44° C 44% 1029.8 hPa 0 mm - 35 W/m² -
1777447982 9.44° C 44% 1029.7 hPa 0 mm - 35 W/m² -
1777447862 9.44° C 47% 1029.6 hPa 0 mm - 35 W/m² -
1777447742 9.44° C 46% 1029.7 hPa 0 mm - 33 W/m² -

* Rain latest hour (hover to see other rain measurements)
** Current wind speed in m/s (hover to see current wind gust speed)